This demonstration page uses our WeatherBlox Daily Observations layout. Learn more.

Left ArrowRight Arrow

41.55636, -103.73856

Hourly Observations for November 7, 2021

Temp ( °F °C ) Dew Point ( °F °C ) Humidity (%) Winds ( mph kmh ) Pressure ( in mb ) Visibility ( mi km ) Precip ( " mm )
12:58 am 00:58 Clear 46 7.6 26 -3.5 46 46 SW 6 9 29.85 1011 10 16 0.00 0.00
1:58 am 01:58 Clear 42 5.6 24 -4.2 50 50 W 6 9 29.84 1011 10 16 0.00 0.00
1:58 am 01:58 Clear 43 6.2 24 -4.5 47 47 SW 9 15 29.84 1011 10 16 0.00 0.00
2:58 am 02:58 Clear 46 7.8 23 -5.2 40 40 W 5 7 29.84 1011 10 16 0.00 0.00
3:58 am 03:58 Clear 42 5.7 24 -4.7 48 48 WSW 5 7 29.89 1012 10 16 0.00 0.00
4:58 am 04:58 Clear 47 8.3 22 -5.8 37 37 W 5 7 29.90 1013 10 16 0.00 0.00
5:58 am 05:58 Clear 48 8.8 20 -6.5 34 34 NW 6 9 29.90 1013 10 16 0.00 0.00
6:58 am 06:58 Sunny 45 7.2 22 -5.8 39 39 NE 3 6 29.97 1015 10 16 0.00 0.00
7:58 am 07:58 Sunny 48 8.8 25 -4 41 41 NW 7 11 29.94 1014 10 16 0.00 0.00
8:58 am 08:58 Sunny 56 13.1 24 -4.2 30 30 W 6 9 29.94 1014 10 16 0.00 0.00
9:58 am 09:58 Sunny 60 15.5 27 -3 28 28 NW 12 19 29.93 1014 10 16 0.00 0.00
10:58 am 10:58 Sunny 68 20.2 24 -4.3 19 19 NW 17 28 29.88 1012 10 16 0.00 0.00
11:58 am 11:58 Sunny 73 23 18 -8 12 12 WNW 18 30 29.85 1011 10 16 0.00 0.00
12:58 pm 12:58 Sunny 75 23.7 16 -8.7 11 11 W 17 28 29.84 1011 10 16 0.00 0.00
1:58 pm 13:58 Sunny 75 23.9 16 -8.7 11 11 W 16 26 29.83 1010 10 16 0.00 0.00
2:58 pm 14:58 Sunny 74 23.6 16 -8.9 11 11 W 13 20 29.83 1010 10 16 0.00 0.00
3:58 pm 15:58 Mostly Sunny 72 22.4 19 -7.2 13 13 SW 6 9 29.87 1012 10 16 0.00 0.00
4:58 pm 16:58 Mostly Cloudy 65 18.2 26 -3.4 23 23 SE 13 20 29.90 1013 10 16 0.00 0.00
5:58 pm 17:58 Mostly Cloudy 57 14 27 -3 31 31 ENE 9 15 29.95 1014 10 16 0.00 0.00
6:58 pm 18:58 Mostly Cloudy 54 12.4 26 -3.6 33 33 ENE 12 19 29.97 1015 10 16 0.00 0.00
7:58 pm 19:58 Mostly Clear 53 11.7 28 -2 39 39 ENE 17 28 30.00 1016 10 16 0.00 0.00
8:58 pm 20:58 Partly Cloudy 48 9.1 31 -0.5 51 51 ENE 21 33 30.01 1016 10 16 0.00 0.00
9:58 pm 21:58 Clear 42 5.7 30 -0.9 63 63 ENE 10 17 30.05 1018 10 16 0.00 0.00
10:58 pm 22:58 Mostly Clear 39 3.8 30 -1.2 70 70 E 10 17 30.03 1017 10 16 0.00 0.00
11:58 pm 23:58 Clear 37 2.9 28 -2.1 70 70 E 10 17 30.04 1017 10 16 0.00 0.00

Powered by AerisWeather